User: anonymous   Login
Location: Unspecified
(0.0000°N, 0.0000°E)
Time: 10:39:52
(UTC+02:00)
Language:

H-2A R/B - Orbit

View from above orbital plane
View from above orbital plane
View from above satellite
View from above satellite

Ground track
Ground track

The orbit data is extracted from the following two-line orbital elements,

1 26899U 01038B   16181.22586141  .00000792  00000-0  28675-3 0  9991
2 26899  27.9609 208.4736 7114658 314.3829   5.9327  2.47147373127779
Epoch (UTC): 29 June 2016 05:25:14
Eccentricity: 0.7114658
inclination: 27.9609°
perigee height: 289 km
apogee height: 33170 km
right ascension of ascending node: 208.4736°
argument of perigee: 314.3829°
revolutions per day: 2.47147373
mean anomaly at epoch: 5.9327°
orbit number at epoch: 12777

The dashed part of the orbit path shows where the satellite is in the earth's shadow,  

DLR